Weather History for KDMO - October, 2011

Change the Weather History Date:

Sunday, October 16, 2011

  Actual Average Record
Temperature  
Mean Temperature 66 °F 58 °F  
Max Temperature 81 °F 69 °F 88 °F (1950)
Min Temperature 51 °F 48 °F 27 °F (1943)
Degree Days  
Heating Degree Days 0 8  
Month to date heating degree days 27 97  
Since 1 July heating degree days 96 142  
Cooling Degree Days 1 1  
Month to date cooling degree days 45 26  
Year to date cooling degree days 1852 1476  
Growing Degree Days 16 (Base 50)    
Moisture  
Dew Point 44 °F    
Average Humidity 44    
Maximum Humidity 55    
Minimum Humidity 33    
Precipitation  
Precipitation 0.00 in 0.12 in 2.75 in (1980)
Month to date precipitation 0.02 2.02  
Year to date precipitation 21.43 34.07  
Sea Level Pressure  
Sea Level Pressure 29.92 in    
Wind  
Wind Speed 12 mph (WNW)    
Max Wind Speed 22 mph    
Max Gust Speed 29 mph    
Visibility 10 miles    
Events      
T = Trace of Precipitation, MM = Missing Value Source: NWS Daily Summary

Daily Weather History Graph

Daily Weather History Graph

Search for Another Location

Airport or City:

Trip Planner

Search our weather history database for the weather conditions in past years. The results will help you decide how hot, cold, wet, or windy it might be!

Date:

Astronomy

Oct. 16, 2011 Rise Set
Actual Time 7:22 AM CDT 6:33 PM CDT
Civil Twilight 6:55 AM CDT 7:00 PM CDT
Nautical Twilight 6:25 AM CDT 7:30 PM CDT
Astronomical Twilight 5:54 AM CDT 8:01 PM CDT
Moon 9:22 PM CDT (10/16) 11:37 AM CDT (10/16)
Length of Visible Light 12h 04m
Length of Day
11h 10m
Waning Gibbous, 82% of the Moon is Illuminated
Oct 16
Waning Gibbous
Oct 19
Last Quarter
Oct 26
New
Nov 2
First Quarter
Nov 10
Full

Hourly Weather History & Observations

Time (CDT) Temp. Heat Index Dew Point Humidity Pressure Visibility Wind Dir Wind Speed Gust Speed Precip Events Conditions
12:53 AM 64.0 °F - 45.0 °F 50% 29.88 in 10.0 mi SSW 11.5 mph - N/A   Clear
1:53 AM 64.0 °F - 46.0 °F 52% 29.87 in 10.0 mi SSW 12.7 mph - N/A   Clear
3:53 AM 66.9 °F - 46.0 °F 47% 29.83 in 10.0 mi SW 19.6 mph 24.2 mph N/A   Clear
4:53 AM 68.0 °F - 45.0 °F 43% 29.82 in 10.0 mi SW 23.0 mph - N/A   Clear
7:53 AM 66.9 °F - 46.9 °F 49% 29.85 in 10.0 mi SW 17.3 mph 24.2 mph N/A   Clear
8:53 AM 71.1 °F - 48.0 °F 44% 29.87 in 10.0 mi WSW 15.0 mph 23.0 mph N/A   Clear
9:53 AM 73.9 °F - 48.9 °F 41% 29.89 in 10.0 mi WSW 15.0 mph 23.0 mph N/A   Clear
10:53 AM 78.1 °F - 51.1 °F 39% 29.89 in 10.0 mi West 15.0 mph 21.9 mph N/A   Clear
11:53 AM 78.1 °F - 52.0 °F 40% 29.90 in 10.0 mi West 13.8 mph - N/A   Clear
12:53 PM 80.1 °F 79.9 °F 53.1 °F 39% 29.90 in 10.0 mi NW 12.7 mph 16.1 mph N/A   Clear
2:53 PM 73.0 °F - 43.0 °F 34% 29.92 in 10.0 mi North 17.3 mph - N/A   Clear
3:53 PM 73.0 °F - 42.1 °F 33% 29.94 in 10.0 mi North 16.1 mph - N/A   Clear
4:53 PM 70.0 °F - 41.0 °F 35% 29.95 in 10.0 mi North 15.0 mph - N/A   Clear
5:53 PM 66.0 °F - 39.9 °F 38% 29.96 in 10.0 mi North 10.4 mph - N/A   Clear
6:53 PM 61.0 °F - 41.0 °F 48% 29.97 in 10.0 mi NNW 3.5 mph - N/A   Clear
7:53 PM 59.0 °F - 39.0 °F 48% 29.99 in 10.0 mi NNE 6.9 mph - N/A   Clear
8:53 PM 55.0 °F - 39.0 °F 55% 29.99 in 10.0 mi North 8.1 mph - N/A   Clear
10:53 PM 53.1 °F - 36.0 °F 52% 30.02 in 10.0 mi Calm Calm - N/A   Clear
11:53 PM 53.1 °F - 35.1 °F 50% 30.03 in 10.0 mi Calm Calm - N/A   Clear